Location: Newark
(48.8656°N, 2.3211°E)
Time: 06:38:15
(UTC+00:00)

Envisat - Pass Details

Date: 12 December 2019
Orbit: 764 x 766 km, 98.1° (Epoch: 27 January)

Event Time Altitude Azimuth Distance (km) Brightness Sun altitude
Rises 05:05:15 0° 32° (NNE) 3,245 6.5 -23.4°
Reaches altitude 10° 05:09:24 10° 65° (ENE) 2,310 6.2 -22.7°
Maximum altitude 05:11:04 12° 85° (E) 2,203 6.4 -22.5°
Drops below altitude 10° 05:12:44 10° 104° (ESE) 2,304 6.6 -22.2°
Sets 05:16:50 0° 137° (SE) 3,222 7.1 -21.5°
